Weather in Surabaya

Indonesia     7°16′27″S   112°44′06″E
temp.,
°C
wind,
m/s
gust,
m/s
humid.,
%
clouds,
%
prec.,
mm/h
press.,
hPa
HPBL,
m
8 august, mon
mon801:00+25sw23800 0.0 1010211
04:00+24w22842 0.0 1010150
07:00+25ssw12760 0.0 1011244
10:00+30se23505 0.0 10101047
13:00+32e334535 0.0 10071309
16:00+31ese44465 0.0 1006856
19:00+28e356626 0.0 1009538
22:00+27ese467216 0.1 1010464
9 august, tue
tue901:00+26sse137481 0.1 1009327
04:00+24wsw348116 0.0 1009190
07:00+26ssw11735 0.0 1011277
10:00+30ese33505 0.0 10111008
13:00+32e44435 0.0 10071197
16:00+31e34465 0.0 1007961
19:00+28e46625 0.3 1009479
22:00+27ese36695 0.0 1011405
10 august, wed
wed1001:00+26ssw12725 0.0 1009283
04:00+24w23775 0.0 1009150
07:00+26wsw12705 0.0 1011221
10:00+30ese345199 0.0 10101016
13:00+32e344579 0.0 10081227
16:00+31ne345641 0.3 10081028
19:00+27e35718 1.8 1010389
22:00+27ese46747 0.3 1011449
11 august, thu
thu1101:00+26se367863 0.3 1009406
04:00+26sse1278100 0.0 1009122
07:00+26s1275100 0.0 1011309
10:00+31e235447 0.0 10101009
13:00+32e34466 0.0 10081378
16:00+31e455525 0.0 1007938
19:00+28ese47695 0.0 1009645
22:00+27ese46775 0.1 1011583
12 august, fri
fri1201:00+26se238414 0.9 1009237
04:00+25ssw128699 0.3 1009119
07:00+26ssw11795 0.3 1010274
10:00+31ese11576 0.0 1010989
13:00+33ene33507 0.1 10071403
16:00+31e445710 0.1 10071011
19:00+28ese47715 0.4 1009635
22:00+27ese357754 0.0 1010462